Other Public Products
Issued by NWS Grand Forks, ND

Home | Current Version | Previous Version | Graphics & Text | Print | Product List | Glossary On
Versions: 1 2 3 4 5 6 7 8 9 10 11 12 13 14 15 16 17 18 19 20 21 22 23 24 25 26 27 28 29 30 31 32 33 34 35 36 37 38 39 40 41 42 43 44 45 46 47 48 49 50
000
FPUS83 KFGF 031431
OPUFGF
PRAIRIE TO PINES WEATHER ROUNDUP
NATIONAL WEATHER SERVICE EASTERN NORTH DAKOTA/GRAND FORKS ND
900 AM CDT SUN MAY 03 2015

 **SATELLITE DATA USED TO AUGMENT SKY COVER AT AUTOMATED STATIONS**
 *****  WEATHER ACROSS EASTERN NORTH DAKOTA  *****

CITY           SKY/WX    TMP DP  RH WIND       PRES   REMARKS
GRAND FORKS    CLOUDY    54  40  59 NW17      29.84R
GRAND FORKS AF CLOUDY    53  40  60 NW12      29.85R
GRAND CITY NWS   N/A     54 N/A N/A NW12        N/A
BUXTON           N/A     56  42  58 CALM        N/A
DEVILS LAKE    PTSUNNY   52  36  54 NW14      29.90R
FARGO          CLOUDY    57  43  59 N16       29.84R
WAHPETON ARPT  MOSUNNY   55  45  67 N15G28    29.81R
$$

 *****  WEATHER ACROSS CENTRAL AND WESTERN NORTH DAKOTA  *****

CITY           SKY/WX    TMP DP  RH WIND       PRES   REMARKS
JAMESTOWN      LGT RAIN  53  37  54 N20       29.88R
BISMARCK       CLOUDY    53  37  54 N12       29.96R
MINOT          MOSUNNY   51  33  50 W14       29.95R
MINOT AFB      MOSUNNY   51  33  50 NW18      29.94R
GARRISON         N/A     50  38  63 NW6       29.97R
WILLISTON      SUNNY     50  31  48 N10G18    30.01R
DICKINSON      CLOUDY    49  36  61 N6        29.98R
HETTINGER      PTSUNNY   51  37  58 N12       29.98S
$$

 *****  OTHER OBSERVATIONS NORTHEAST NORTH DAKOTA  *****

CITY           SKY/WX    TMP DP  RH WIND       PRES   REMARKS
WALHALLA       FAIR      55  37  50 NW20G28   29.85R
LANGDON        FAIR      54  37  54 NW18G25   29.87R
CAVALIER       FAIR      55  39  54 NW14G24   29.85R
GRAFTON        PTSUNNY   54  41  62 W16       29.86R
CANDO          FAIR      55  32  41 NW20      29.90S
FORT TOTTEN      N/A     50  40  68 NW6       29.95S
ROLLA          NOT AVBL
RUGBY          NOT AVBL
 ***** THE ABOVE OBSERVATIONS ARE NON NWS ARE NOT QUALITY
        CONTROLLED AND MAY MIS-REPORT RAIN FOR SNOW...
$$

 *****  OTHER OBSERVATIONS SOUTHEAST NORTH DAKOTA *****

CITY           SKY/WX    TMP DP  RH WIND       PRES   REMARKS
COOPERSTOWN    NOT AVBL
VALLEY CITY    PTSUNNY   54  39  58 NW21G32   29.88R
OAKES            N/A     59  39  47 N28       29.85R
GWINNER        SUNNY     63  37  39 N23G31    29.87R
SHEYENNE NWR     N/A     59  42  54 N13       29.95
BUFFALO        NOT AVBL
WYNDMERE       NOT AVBL
 ***** THE ABOVE OBSERVATIONS ARE NON NWS ARE NOT QUALITY
       CONTROLLED AND MAY MIS-REPORT RAIN FOR SNOW...
$$

  *****  WEATHER ACROSS NORTHERN MINNESOTA  *****

CITY           SKY/WX    TMP DP  RH WIND       PRES   REMARKS
FLAG ISLAND    PTSUNNY   48  39  71 NW8       29.75R
WARROAD        PTSUNNY   54  43  66 NW7       29.79R
ROSEAU         CLOUDY    52  43  71 W9        29.80R
HALLOCK        PTSUNNY   55  39  54 W14       29.83R
THF RVR FALLS  CLOUDY    54  39  58 W13       29.84R
HALSTAD          N/A     58  37  46 N22         N/A
FOSSTON        NOT AVBL
BAUDETTE       MOSUNNY   56  44  64 NW12      29.75R
WASKISH        PTSUNNY   55  50  82 SW10      29.76R
CROOKSTON      CLOUDY    54  41  62 NW15      29.86R
$$
  *****  WEATHER ACROSS CENTRAL AND WEST MINNESOTA  *****

CITY           SKY/WX    TMP DP  RH WIND       PRES   REMARKS
BEMIDJI        MOSUNNY   65  40  40 NW12G21   29.77R
PARK RAPIDS    MOSUNNY   64  50  60 NW12      29.77R
WADENA         MOSUNNY   63  54  72 N12       29.77R THUNDER
DETROIT LAKES  PTSUNNY   59  52  77 N12       29.82R
MOORHEAD       CLOUDY    57  45  62 N15       29.86R
FERGUS FALLS   MOSUNNY   64  48  55 N13       29.79R
ELBOW LAKE     FAIR      61  55  80 SW3       29.78S
MORRIS MN      SUNNY     63  55  77 W3        29.77R
STAPLES        SUNNY     64  54  68 NW3       29.77R
WHEATON        SUNNY     59  50  72 N10       29.81R
$$
  *****  WEATHER ELSEWHERE ACROSS MINNESOTA  *****

CITY           SKY/WX    TMP DP  RH WIND       PRES   REMARKS
DULUTH         MOSUNNY   67  53  61 W18       29.74R
INTRNTL FALLS  MOSUNNY   60  45  57 W9        29.72R
ELY            MOSUNNY   66  46  48 W9        29.72S
CLOQUET        SUNNY     68  52  56 SW12      29.74S
BRAINERD       SUNNY     65  53  65 NW7       29.77R
HIBBING        MOSUNNY   66  48  52 SW6       29.73S
ALEXANDRIA     MOSUNNY   62  56  80 NW9       29.79R
SAINT CLOUD    MOSUNNY   60  53  77 S12       29.76R
MINNEAPOLIS    PTSUNNY   61  51  70 S8        29.79R
$$

  *****  WEATHER ACROSS SOUTH DAKOTA  *****

CITY           SKY/WX    TMP DP  RH WIND       PRES   REMARKS
SIOUX FALLS    PTSUNNY   65  55  70 E5        29.75R
BROOKINGS      PTSUNNY   66  55  68 N8        29.77R
WATERTOWN      SUNNY     63  54  72 N14       29.78R
HURON          MOSUNNY   58  46  64 N14       29.74R
SISSETON         N/A     61  46  57 N21       29.79R
ABERDEEN       SUNNY     60  40  47 N24G31    29.83R
MITCHELL       SUNNY     66  55  67 CALM      29.73R
PIERRE         SUNNY     60  37  42 N25G38    29.80R
MOBRIDGE       SUNNY     58  38  47 N23G32    29.86R
RAPID CITY     PTSUNNY   56  36  47 N21       29.95R
$$

  *****  SOME WEATHER IN NEARBY STATES *****

CITY           SKY/WX    TMP DP  RH WIND       PRES   REMARKS
GLASGOW MT     PTSUNNY   42  32  67 SW5       30.04R
GREAT FALLS MT SUNNY     41  27  57 CALM      30.03R
CHEYENNE WY    MOSUNNY   58  36  43 W14       29.98R
SCOTTSBLUFF NE SUNNY     59  43  55 NW9       29.88R
OMAHA NE       PTSUNNY   67  58  72 S13       29.75S
DES MOINES IA  PTSUNNY   67  56  67 S12       29.80S
DAVENPORT IA   LGT RAIN  59  50  72 S12       29.93S
CHICAGO IL     PTSUNNY   67  43  41 SW12      29.97S
EAU CLAIRE WI  PTSUNNY   64  50  60 S9        29.80F
LA CROSSE WI   CLOUDY    66  51  58 S10       29.83R
$$

  *****  SOME NATIONAL WEATHER *****

CITY           SKY/WX    TMP DP  RH WIND       PRES   REMARKS
LA GUARDIA NY  MOSUNNY   61  41  47 CALM      30.08F
RALEIGH NC     MOSUNNY   65  51  60 W7        30.20S
ATLANTA GA     MOSUNNY   70  51  51 CALM      30.18R
NEW ORLEANS LA MOSUNNY   74  62  66 S5        30.12R
OKLAHOMA CITY  CLOUDY    67  54  63 S15       29.95R
ALBUQUERQUE NM MOSUNNY   57  38  48 N7        30.07R
SALT LAKE CITY MOSUNNY   62  41  46 S9        29.90R
LOS ANGELES CA PTSUNNY   60  53  77 VRB5      29.90R
BOISE ID       MOSUNNY   50  32  50 CALM      29.88R
SEATTLE WA     SUNNY     46  37  72 CALM      30.01S
$$

*** WEATHER ACROSS MANITOBA...SASKATCHEWAN AND ONTARIO ***
                ***ONTARIO***

CITY           SKY/WX    TMP DP  RH WIND       PRES   REMARKS
GERALDTON      CLOUDY    57  43  58 SW10      29.64F
THUNDER BAY    PTSUNNY   48  45  87 VRB2      29.69R
SIOUX LOOKOUT  MOSUNNY   54  43  66 NW10G17   29.67R
TORONTO        PTSUNNY   64  43  45 S5        30.03F
BIG TROUT LK   CLOUDY    39  36  87 NW10G18   29.57R
PICKLE LAKE    MOSUNNY   50  43  76 NW7       29.61R
DRYDEN         PTSUNNY   54  45  71 NW9       29.69R
KENORA         MOSUNNY   50  39  66 NW13      29.74R
$$
                *** MANITOBA***

CITY           SKY/WX    TMP DP  RH WIND       PRES   REMARKS
BRANDON        MOSUNNY   50  37  62 NW23G31   29.87R
DAUPHIN        CLOUDY    46  41  81 W16G24    29.81R
ISLAND LAKE    LGT RAIN  37  36  93 N10       29.69R
PILOT MOUND      N/A     52  37  58 NW14G22     N/A
THE PAS        CLOUDY    36  36 100 N3        29.80R FOG
THOMPSON       CLOUDY    32  27  80 NW8       29.80R WCI  25
WINNIPEG       MOSUNNY   55  41  58 W13       29.80R
LYNN LAKE      CLOUDY    27  25  93 N7        29.84R WCI  19
CHURCHILL      CLOUDY    23  21  93 N18G25    29.81R WCI   9
GILLAM         CLOUDY    25  21  86 N14G20    29.77R WCI  13
$$
                ***SASKATCHEWAN***

CITY           SKY/WX    TMP DP  RH WIND       PRES   REMARKS
ESTEVAN        MOSUNNY   45  32  61 NW18      29.97R
KINDERSLEY     MOSUNNY   37  32  81 NW9       30.04R
LLOYDMINSTER   PTSUNNY   37  34  87 NW8       30.01R
PRINCE ALBERT  MOSUNNY   43  37  81 NW12      29.95R
REGINA         MOSUNNY   41  36  81 NW20      29.97R


USA.gov is the U.S. government's official web portal to all federal, state and local government web resources and services.